Vertical_Velocity
1 3 0 -1 2 1 2 -1 -1 -2 -1 2 0 -0 -1 -3 2 1 1 1 1 0 -1 4 1 2 -1 -0 -0 -0 1 -0 0 1 0 -0 -1 1 -1 -3 -2 -1 -1 -1 -0 2 1 1 -1
2 1 -2 1 -0 2 2 -1 -0 -2 0 3 -0 1 -2 -2 -0 -0 0 -1 2 0 -1 6 -1 3 -1 -1 1 1 -0 -1 0 0 -0 -1 -2 0 -0 -1 -1 -0 0 -0 -1 0 0 -0 -0
2 -0 2 1 -0 1 -0 -3 -1 2 3 0 -0 2 -2 -0 -1 -3 -0 -1 1 1 2 3 0 1 0 0 1 -0 2 0 0 -0 -1 -0 -1 -2 -1 0 -0 -1 1 1 -1 -1 -1 0 -0
1 -2 -0 0 2 4 -1 1 -3 -2 1 1 -1 0 1 -1 1 -1 0 1 1 0 3 0 -1 1 1 -0 -0 1 1 -0 1 1 -1 0 -0 -1 -1 0 -2 -2 0 -1 -0 0 -1 0 -1
-4 -0 1 0 -2 1 2 1 1 1 1 1 -2 -0 -0 -1 -2 2 -0 1 -0 -0 2 1 -1 7 3 -1 1 -1 1 2 -0 1 0 -1 -0 0 -1 1 -1 -2 -0 -1 -0 -0 -1 -0 -1
-1 -1 -2 -3 2 0 0 1 -1 -0 1 1 -1 1 1 4 -0 -1 2 0 -0 1 -1 1 -0 -1 2 3 -0 -1 1 2 0 0 0 -1 -1 1 0 0 1 -0 -0 -0 -1 -0 0 0 -1
-1 -6 -2 2 -0 0 -2 -0 -3 0 4 0 -1 1 1 3 1 -1 0 -0 0 0 -0 -1 1 1 1 0 11 -4 -1 2 3 1 1 -1 -1 0 -1 -0 1 1 -0 1 1 1 0 -1 -0
-3 -0 -3 3 0 0 -1 -3 -2 3 0 3 1 -1 -0 2 2 0 1 1 1 1 0 -1 1 -1 -0 -0 -3 -1 -1 0 2 4 1 0 1 2 -1 1 0 -0 -0 0 1 0 0 -2 -1
-6 -2 -7 0 1 2 0 0 -2 1 -0 2 3 -1 2 1 1 0 0 0 -1 -2 -1 1 1 0 -1 1 5 3 4 0 1 2 1 1 2 1 0 2 0 -0 -0 1 -0 0 -1 -1 -0
-1 -2 -9 -0 -1 -0 2 -1 -1 2 1 0 -1 -3 1 -1 -2 -1 -2 2 1 0 -1 -1 -0 2 -0 -1 1 1 2 -1 0 2 -2 0 1 0 0 1 2 2 -0 -0 0 1 2 -1 -0
2 -1 -5 -6 -1 -1 -1 0 -1 -1 -1 5 -0 1 0 0 -3 -0 2 -0 -1 -2 -1 0 -1 -1 1 3 2 2 -0 -5 1 4 3 1 1 2 0 0 0 0 2 2 4 4 1 2 3
-5 -6 -2 -7 1 1 -2 -5 2 0 0 1 -3 -1 -2 -1 2 2 -1 -1 -1 -0 0 -1 -1 -0 1 -0 1 1 6 2 7 2 -1 2 1 2 1 2 1 1 1 2 3 1 0 -1 1
3 2 -3 -5 1 2 -0 -3 -5 -4 -3 8 0 -3 -2 1 3 2 1 0 -3 -2 0 -0 1 2 2 1 2 2 5 4 3 1 -2 2 1 1 1 -1 2 1 0 1 1 1 2 1 0
1 -4 -5 -0 -0 4 9 -2 -2 -4 -2 -1 6 1 -1 -1 1 1 -2 -1 1 -0 -1 1 1 1 1 2 1 -0 6 2 -0 5 3 1 1 1 1 1 2 1 0 0 2 0 2 1 2
2 -2 -4 1 -5 -1 -1 -2 -2 1 1 -3 -5 -0 1 1 -1 -0 -0 -3 -3 -0 2 0 1 1 1 1 0 2 2 2 2 -0 -2 -0 1 0 2 1 2 -2 -3 -2 0 1 -0 -0 1
-1 1 0 -3 -1 13 3 0 -2 0 -4 -4 1 2 -1 -2 -2 -2 -1 0 1 1 0 3 0 0 1 1 1 3 2 1 2 -1 0 1 2 1 0 1 3 1 0 5 -2 -1 -1 -1 2
-1 7 -4 1 -2 6 4 -1 -5 2 -6 -1 -1 0 1 1 -2 0 0 3 2 0 -0 1 1 -1 1 -0 0 3 2 2 2 2 2 2 2 0 2 -0 1 2 1 -1 3 -1 0 -0 -0
25 5 -4 -0 -0 1 -0 -5 -5 -3 -0 -4 -3 2 2 2 -1 0 -1 3 1 0 0 1 0 -0 -0 1 0 1 2 3 2 3 2 2 -2 -1 0 -0 1 -1 -0 -1 -1 -2 -0 -0 1
3 -1 -5 7 -4 -1 5 -1 -2 -3 4 1 -2 3 3 4 -0 -0 0 1 2 0 -1 0 -1 -2 1 1 1 1 -1 1 -1 0 1 -1 2 -0 1 3 -2 -1 -3 -3 0 0 0 1 -0
9 -3 0 -1 2 -1 3 -0 -2 -2 -2 -3 0 -2 -2 0 2 2 -2 0 2 1 -3 -1 -1 0 0 1 0 0 0 -1 3 3 0 -1 -0 -1 -0 -2 -2 -6 -2 -1 1 1 -0 -1 1
1 3 1 4 -1 -0 -1 0 -6 -1 2 -5 -2 0 -0 -2 4 7 -2 2 0 1 -0 2 1 -0 0 2 2 -1 0 -1 2 1 4 3 -1 -1 -1 -2 -0 3 2 2 1 4 2 2 1
6 1 -2 -3 -0 -1 -4 -2 -1 -5 -5 3 -5 -2 -1 -4 -1 2 -0 -0 -0 2 -1 -2 0 -1 1 0 3 1 1 -3 -4 4 -5 0 0 3 -4 -1 -0 2 1 0 -2 -0 2 3 4
7 -3 -2 -1 2 -1 -3 0 -5 -3 -6 -2 -1 -1 2 -3 2 0 -1 4 1 2 -0 2 1 -1 -1 -1 2 1 0 0 6 -0 -1 3 1 8 10 1 -1 -1 -1 -1 -1 -1 -2 -1 4
-1 -1 -4 -1 1 1 -0 0 -2 1 -6 -5 2 -3 0 -2 1 -0 2 2 1 3 1 1 2 1 2 1 13 6 8 9 -4 4 2 2 -0 -2 -2 -1 -1 -2 -3 2 3 6 1 1 -7
5 3 -7 1 1 4 -2 -2 -1 -0 -4 -3 3 -3 -1 -1 -1 0 2 1 1 2 1 -1 0 -3 -0 -1 6 5 18 8 3 7 0 1 1 -3 -2 3 -2 -6 -5 -1 -0 0 -1 -2 -1
2 -1 0 -1 7 0 -0 5 2 -2 -2 -4 -2 -4 -4 -1 -1 -4 -1 0 -2 1 0 0 -0 0 1 -6 -11 -6 -4 3 3 3 -0 2 -2 5 -3 -5 2 -1 -0 -1 -0 -2 -1 -1 1
0 -1 -4 -2 4 0 -3 -3 -2 0 -4 -6 -0 -4 -6 -2 0 -1 2 -1 2 -0 -1 -1 -1 0 1 -0 0 -6 3 2 3 4 -1 -3 -4 -5 -2 3 1 -3 0 3 2 -0 1 1 3
0 -5 -4 -4 -2 2 -2 -4 -7 1 2 -5 -3 -4 -8 -3 1 1 0 1 4 2 -1 -2 0 3 2 -2 -1 0 2 1 2 -2 3 0 1 -2 0 1 -0 -1 1 1 -0 0 1 1 0
1 -4 -0 -3 1 -1 -1 2 2 0 3 5 -0 -1 -8 -3 -2 2 -0 -0 2 1 -1 -1 0 1 0 1 5 -2 0 -1 0 -1 -2 -1 1 -1 -5 1 4 1 -1 -5 -2 -1 1 1 0
-3 1 -4 -1 1 1 5 -3 0 -3 -4 3 -0 -2 -7 -7 -1 0 3 2 3 -1 -1 -1 -1 0 -2 -1 3 0 0 1 0 1 1 1 3 1 -1 2 -0 -2 -0 -1 -1 2 2 -2 -3
Height
5882 5883 5883 5884 5887 5885 5885 5885 5885 5886 5887 5888 5888 5891 5892 5894 5896 5899 5899 5899 5900 5901 5902 5904 5906 5907 5909 5911 5910 5912 5915 5917 5918 5918 5919 5919 5919 5919 5920 5921 5921 5921 5920 5920 5919 5919 5919 5919 5919
5883 5883 5885 5887 5887 5887 5888 5886 5886 5889 5890 5891 5890 5892 5893 5894 5896 5898 5900 5900 5901 5902 5904 5905 5907 5908 5911 5912 5913 5914 5916 5919 5919 5920 5921 5922 5922 5923 5923 5924 5924 5924 5923 5923 5923 5922 5921 5921 5921
5887 5885 5887 5887 5888 5889 5890 5889 5889 5891 5893 5893 5893 5893 5895 5896 5898 5898 5900 5901 5902 5903 5905 5906 5908 5909 5911 5913 5914 5915 5918 5919 5920 5921 5922 5923 5924 5925 5926 5926 5926 5926 5926 5925 5925 5925 5924 5924 5924
5888 5888 5889 5889 5890 5892 5892 5891 5891 5892 5894 5894 5894 5895 5895 5896 5898 5899 5900 5901 5903 5904 5905 5906 5908 5909 5911 5914 5916 5917 5918 5920 5921 5922 5924 5925 5926 5927 5928 5928 5929 5928 5929 5929 5928 5928 5927 5927 5926
5890 5890 5890 5891 5891 5891 5891 5893 5893 5894 5895 5896 5896 5896 5897 5898 5900 5900 5901 5902 5903 5904 5906 5907 5909 5910 5911 5914 5916 5918 5919 5921 5922 5924 5925 5926 5928 5928 5929 5930 5930 5931 5930 5930 5931 5931 5930 5930 5929
5894 5893 5893 5894 5894 5894 5893 5892 5893 5894 5896 5896 5896 5897 5900 5900 5901 5901 5902 5902 5903 5904 5905 5906 5908 5909 5911 5913 5915 5918 5920 5922 5923 5925 5926 5927 5929 5930 5931 5931 5932 5932 5931 5932 5933 5933 5933 5931 5930
5898 5896 5894 5895 5897 5897 5896 5896 5895 5897 5897 5898 5897 5897 5899 5901 5901 5901 5902 5902 5903 5904 5905 5907 5909 5909 5912 5913 5912 5914 5920 5922 5923 5925 5926 5928 5930 5931 5932 5933 5933 5934 5933 5933 5934 5935 5935 5933 5932
5900 5899 5894 5897 5899 5900 5900 5898 5898 5899 5899 5900 5898 5898 5899 5901 5901 5901 5902 5902 5903 5904 5905 5906 5907 5909 5911 5913 5913 5915 5919 5921 5923 5925 5927 5929 5931 5932 5933 5934 5935 5936 5936 5935 5935 5936 5936 5936 5935
5901 5900 5896 5897 5901 5903 5902 5901 5900 5901 5901 5901 5902 5900 5901 5901 5901 5901 5900 5901 5902 5903 5905 5905 5906 5908 5910 5912 5913 5915 5919 5920 5922 5925 5928 5930 5931 5933 5935 5936 5936 5937 5937 5937 5936 5936 5937 5937 5937
5904 5902 5898 5899 5902 5903 5904 5904 5904 5904 5903 5903 5903 5901 5902 5901 5901 5901 5901 5901 5902 5902 5903 5904 5905 5906 5909 5910 5912 5915 5918 5921 5923 5926 5928 5929 5932 5933 5935 5936 5938 5939 5939 5939 5939 5938 5938 5939 5939
5904 5904 5902 5901 5902 5903 5904 5905 5906 5905 5905 5905 5902 5902 5902 5902 5901 5901 5902 5903 5902 5901 5900 5901 5903 5905 5907 5909 5910 5912 5916 5919 5922 5925 5927 5929 5932 5934 5936 5936 5938 5941 5942 5942 5942 5941 5941 5941 5941
5904 5904 5903 5904 5903 5905 5904 5903 5905 5905 5907 5907 5903 5902 5901 5901 5903 5903 5902 5902 5901 5900 5899 5899 5900 5902 5906 5908 5909 5910 5913 5915 5920 5924 5926 5929 5931 5933 5936 5938 5939 5942 5943 5944 5943 5943 5942 5943 5942
5909 5907 5903 5901 5906 5905 5904 5903 5902 5903 5906 5908 5905 5903 5902 5902 5902 5903 5902 5901 5901 5900 5899 5898 5898 5900 5903 5906 5908 5909 5910 5913 5918 5923 5925 5928 5931 5933 5936 5938 5939 5941 5942 5942 5942 5942 5942 5943 5943
5908 5904 5902 5904 5904 5904 5904 5903 5902 5903 5903 5906 5907 5905 5904 5903 5903 5902 5901 5901 5901 5900 5899 5897 5898 5899 5901 5904 5906 5908 5911 5913 5918 5922 5924 5928 5931 5933 5936 5937 5937 5938 5939 5939 5939 5940 5941 5941 5942
5908 5906 5904 5905 5905 5903 5904 5904 5901 5902 5902 5903 5904 5906 5906 5903 5901 5902 5901 5901 5900 5900 5898 5897 5897 5898 5900 5902 5905 5907 5910 5913 5916 5920 5924 5927 5930 5932 5933 5933 5934 5935 5936 5937 5939 5939 5940 5941 5941
5909 5907 5908 5906 5906 5907 5906 5905 5902 5901 5901 5903 5906 5907 5904 5902 5901 5901 5901 5901 5900 5899 5898 5898 5897 5897 5899 5901 5903 5903 5907 5911 5915 5919 5923 5927 5928 5929 5930 5932 5934 5935 5937 5938 5939 5938 5939 5940 5941
5908 5907 5904 5906 5905 5907 5906 5904 5902 5902 5902 5902 5903 5903 5902 5902 5901 5901 5900 5901 5901 5899 5897 5897 5896 5896 5898 5899 5901 5902 5906 5909 5912 5918 5922 5924 5925 5928 5931 5932 5934 5937 5937 5937 5938 5938 5938 5939 5939
5901 5903 5905 5906 5908 5906 5904 5903 5902 5903 5901 5898 5900 5900 5903 5903 5902 5901 5900 5902 5902 5899 5896 5896 5895 5896 5897 5899 5901 5903 5906 5908 5912 5916 5919 5923 5925 5927 5930 5932 5934 5936 5936 5936 5938 5938 5938 5937 5937
5903 5905 5906 5906 5907 5905 5904 5904 5904 5902 5900 5899 5899 5899 5902 5902 5903 5902 5901 5902 5902 5900 5897 5897 5895 5896 5898 5899 5900 5902 5903 5904 5906 5910 5916 5921 5925 5927 5930 5932 5933 5935 5936 5937 5939 5938 5937 5936 5935
5906 5907 5908 5909 5908 5907 5904 5903 5903 5902 5900 5900 5900 5900 5902 5904 5903 5902 5901 5903 5903 5902 5900 5898 5896 5895 5897 5898 5899 5901 5902 5903 5906 5909 5916 5921 5924 5926 5928 5931 5934 5937 5937 5937 5937 5936 5936 5935 5934
5906 5906 5906 5903 5905 5904 5905 5905 5902 5900 5903 5900 5900 5900 5901 5902 5903 5903 5901 5903 5904 5904 5902 5901 5899 5897 5897 5898 5899 5901 5902 5904 5907 5910 5915 5920 5924 5927 5930 5934 5937 5938 5938 5937 5937 5935 5935 5934 5931
5904 5903 5904 5903 5901 5903 5903 5904 5903 5901 5902 5900 5900 5901 5900 5901 5902 5901 5903 5904 5905 5904 5902 5901 5900 5898 5898 5898 5900 5901 5902 5903 5906 5910 5915 5922 5926 5929 5932 5935 5934 5934 5935 5934 5933 5932 5931 5930 5928
5901 5902 5902 5902 5899 5901 5902 5902 5902 5902 5902 5900 5899 5901 5902 5903 5902 5903 5904 5907 5907 5906 5904 5903 5901 5900 5900 5899 5901 5902 5901 5904 5908 5913 5918 5923 5927 5929 5933 5934 5935 5934 5932 5932 5931 5929 5927 5926 5924
5900 5902 5902 5902 5901 5902 5901 5903 5902 5904 5901 5901 5901 5901 5903 5903 5903 5905 5907 5909 5910 5909 5907 5907 5905 5903 5902 5902 5901 5902 5903 5906 5909 5916 5920 5925 5929 5930 5932 5933 5933 5932 5930 5930 5926 5925 5923 5922 5920
5899 5902 5901 5902 5901 5902 5900 5902 5903 5902 5901 5901 5902 5903 5904 5905 5905 5905 5908 5911 5911 5910 5910 5910 5910 5906 5904 5904 5904 5904 5907 5910 5915 5916 5922 5927 5929 5930 5933 5935 5934 5930 5929 5926 5924 5923 5922 5920 5918
5896 5900 5901 5900 5899 5901 5901 5903 5903 5901 5901 5902 5902 5904 5906 5907 5906 5906 5909 5912 5913 5912 5913 5913 5913 5911 5911 5910 5909 5908 5911 5912 5914 5918 5923 5928 5930 5932 5933 5935 5932 5930 5928 5927 5926 5923 5920 5918 5916
5895 5898 5900 5899 5896 5899 5900 5901 5901 5901 5902 5903 5904 5906 5907 5909 5909 5908 5912 5914 5914 5914 5915 5916 5916 5915 5914 5914 5914 5916 5918 5919 5922 5926 5927 5928 5932 5932 5932 5934 5934 5931 5928 5927 5925 5921 5917 5916 5915
5893 5894 5896 5896 5894 5895 5898 5899 5901 5902 5904 5904 5906 5908 5907 5910 5911 5912 5913 5914 5916 5917 5918 5918 5918 5918 5918 5917 5919 5921 5922 5924 5925 5927 5930 5933 5934 5934 5934 5934 5932 5930 5928 5926 5923 5918 5916 5915 5913
5889 5891 5892 5891 5894 5895 5896 5899 5901 5903 5904 5907 5907 5909 5908 5911 5911 5915 5916 5917 5919 5921 5921 5920 5920 5921 5921 5922 5924 5923 5924 5926 5929 5931 5933 5933 5933 5934 5933 5932 5931 5929 5927 5925 5921 5918 5915 5913 5911
5883 5888 5888 5888 5892 5893 5895 5898 5899 5901 5903 5906 5908 5911 5909 5911 5914 5917 5920 5920 5922 5923 5922 5922 5923 5924 5925 5926 5926 5925 5927 5929 5931 5932 5933 5935 5935 5934 5932 5931 5929 5927 5925 5922 5918 5915 5913 5910 5908